Regional Weather Roundup
Issued by NWS Upton, NY

Current Version | Previous Version | Graphics & Text | Print | Product List | Glossary Off
Versions: 1 2 3 4 5 6 7 8 9 10 11 12 13 14 15 16 17 18 19 20 21 22 23 24 25 26 27

000
ASUS41 KOKX 211305
RWROKX

Regional Weather Roundup
National Weather Service New York NY
900 AM EDT SAT APR 21 2018

Note: "FAIR" indicates few or no clouds below 12,000 feet with no
significant weather and/or obstructions to visibility.

NYZ071-072-176-178-NJZ106-104-211400-
New York City Metro Area

CITY           SKY/WX    TMP DP  RH WIND       PRES   REMARKS
Central Park   FAIR      44  25  47 NW6       30.43S
Bronx Bot Gard   N/A     43  25  49 W16       30.41
Bronx Lehman C   N/A     43  27  52 NW5         N/A
LaGuardia Arpt FAIR      45  28  51 NW12      30.41S
Queens College   N/A     43  27  52 NW8         N/A
Kennedy Intl   FAIR      47  27  45 NW10      30.42S
Breezy Point     N/A     45 N/A N/A NW9         N/A
Brooklyn Coll    N/A     43  27  52 NW12        N/A
Staten Island    N/A     43  25  49 NW6         N/A
Newark/Liberty PTSUNNY   47  25  42 NW9       30.42S
Teterboro      FAIR      46  26  45 NW10      30.41S
$$

NYZ177-179-078>081-211400-
Long Island New York

CITY           SKY/WX    TMP DP  RH WIND       PRES   REMARKS
Jones Beach      N/A     45 N/A N/A NW8         N/A
Wantagh          N/A     46  27  46 NW8         N/A
Hempstead        N/A     45  30  57 N5        30.42
Matinecock Pt    N/A     43 N/A N/A SW8         N/A
Farmingdale    FAIR      46  27  47 N5        30.40S
MacArthur/ISP  FAIR      47  27  45 NW12      30.38S
Stony Brook      N/A     41  30  65 W7          N/A
Shirley        FAIR      48  30  49 NW10      30.38F
Mt Sinai Harb    N/A    N/A N/A N/A W6          N/A
Westhampton    FAIR      47  25  42 NW14      30.38F
East Hampton   FAIR      43  27  53 NW9G16    30.37S
Southold         N/A     43  32  65 W6          N/A
Montauk          N/A     46  31  55 NW9       30.37S
$$

NYZ052-065-067-211400-
Hudson Valley

CITY           SKY/WX    TMP DP  RH WIND       PRES   REMARKS
White Plains   FAIR      43  25  49 NW10      30.39R
Larchmont Harb   N/A     43 N/A N/A W12         N/A
Croton On Huds   N/A     43 N/A N/A CALM        N/A
Somers           N/A     41  27  56 NW6         N/A
Brewster         N/A     41  27  56 W3          N/A
Newburgh       SUNNY     41  28  60 W8        30.40S
Montgomery     FAIR      43  26  51 W8        30.39R
Otisville        N/A     41  28  60 NW3         N/A
Warwick          N/A     41  28  60 W8          N/A
Suffern          N/A     41  27  56 NW8         N/A
Poughkeepsie   FAIR      41  26  55 W7        30.40R
Albany         FAIR      44  27  51 NW10      30.38S
$$

NJZ001-105-106-008-010-013-015-019>022-104-211400-
New Jersey

CITY           SKY/WX    TMP DP  RH WIND       PRES   REMARKS
Newark/Liberty PTSUNNY   47  25  42 NW9       30.42S
Teterboro      FAIR      46  26  45 NW10      30.41S
Caldwell       FAIR      45  25  45 VRB6      30.42F
Somerville     FAIR      46  28  49 MISG      30.41F
Linden         FAIR      46  26  46 CALM      30.43S
Perth Amboy      N/A     43 N/A N/A NW9         N/A
Sussex         FAIR      43  29  57 VRB5      30.41S
Andover          N/A     41  26  55 NW6       30.42S
Trenton        FAIR      45  28  51 NW7       30.43S
Millville      FAIR      46  27  47 NW8       30.45S
Atlantic City  FAIR      47  27  45 NW13      30.43F
Wrightstown    FAIR      46  28  49 NW7       30.41S
Toms River     FAIR      44  27  51 NW9       30.43F
Belmar         FAIR      45  26  47 NW9       30.43S
$$

PAZ047>061-062-071-211400-
Eastern Pennsylvania

CITY           SKY/WX    TMP DP  RH WIND       PRES   REMARKS
Philadelphia   PTSUNNY   46  26  45 NW9       30.46S
Allentown      FAIR      44  26  49 NW7       30.44S
Scranton       FAIR      37  27  67 SW5       30.43R WCI  33
$$

CTZ002-004>006-009-010-012-RIZ004-006-007-MAZ004-011-015-211400-
Southern New England

 In CT

CITY           SKY/WX    TMP DP  RH WIND       PRES   REMARKS
Bradley Intl   FAIR      45  26  47 N6        30.36S
Hartford       FAIR      46  28  49 N6        30.37F
Danbury        FAIR      42  24  49 W6        30.39S
Wtrbury/Oxford FAIR      40  26  57 NW6       30.36F
Norwalk Harbor   N/A     43 N/A N/A W9          N/A
Bridgeport     FAIR      47  25  42 NW10      30.38F
Meriden        FAIR      45  26  47 NW10      30.37S
New Haven      FAIR      46  26  45 NW12      30.37F
Chester        FAIR      46  25  42 NW8       30.35F
Groton         FAIR      47  27  45 NW12      30.35S
Willimantic    FAIR      44  27  51 NW6G17    30.36S

 In RI

CITY           SKY/WX    TMP DP  RH WIND       PRES   REMARKS
Providence     FAIR      47  28  47 NW10      30.33F
Block Island   FAIR      44  30  57 NW10      30.35S
Westerly       FAIR      47  29  49 NW9       30.35S

In MA

CITY           SKY/WX    TMP DP  RH WIND       PRES   REMARKS
Boston         FAIR      46  26  45 W13       30.30F
Worcester      FAIR      39  25  57 W9        30.30S WCI  33
Westfield      FAIR      45  27  49 NW8       30.34F
Provincetown   FAIR      44  32  62 NW12      30.30R
Nantucket      FAIR      45  32  60 NW16      30.30S
$$

ANZ330-335-338-340-345-350-353-355-211400-
Coastal Marine Observations


STATION/POSITION TIME  SKY/WX   TEMP    WIND        PRES    VSBY  WAVE
                                AIR SEA DIR/SP/G                  HT/PER
                 (UTC)          (F)     (DEG/KT/KT) (MB)    (MI)  (FT/S)
NY Harb Entrance 1250            42 44  310/ 14/ 16 1030.0          2/ 3
20 S Fire Island 1250            42 42  310/ 12/ 14 1029.4          2/ 4
23 SSW Montauk P 1250            41 42  300/ 16/ 17 1028.1          2/ 4
15 E Barnegat Li 1230               44                N/A           3/ 4
Hudson Canyon    1250            43 44  330/ 14/ 16 1028.8          4/ 5
Kings Point      1230            42 44  350/  6/  7 1030.7
Execution Rocks  NOT AVBL
Western LI Sound NOT AVBL
Central LI Sound 1245            42     300/  8/ 10   N/A           1
Robbins Reef     1230            42     320/  9/ 12 1030.6
$$


>>>>>>>>>>>>>>>>>>>>>>>>>>>> KEY <<<<<<<<<<<<<<<<<<<<<<<<<<<
>                                                          <
>     SKY/WX - Sky Condition/Present Weather               <
>     TMP    - Temperature in Fahrenheit                   <
>     DP     - Dew Point in Fahrenheit                     <
>     RH     - Relative Humidity in Percent                <
>     WIND   - Direction (from) and Speed in MPH           <
>     PRES   - Mean Sea Level Pressure (inches of Hg)      <
>     WCI    - Wind Chill Index                            <
>     VSB    - Visibility in Miles                         <
>     HX     - Heat Index                                  <
>     TC     - Temperature in Celsius                      <
>     VRB    - Varibale Wind Direction                     <
>                                                          <
>>>>>>>>>>>>>>>>>>>>>>>>>>>> KEY <<<<<<<<<<<<<<<<<<<<<<<<<<<




USA.gov is the U.S. government's official web portal to all federal, state and local government web resources and services.